Isachsen, Nunavut

7:22 PM MST on January 19, 2017 (GMT -0700)
Isachsen

Weather History for CWIC - June, 2013

Change the Weather History Date:

Sunday, June 30, 2013

  Actual Average Record
Temperature  
Mean Temperature 29 °F -  
Max Temperature 31 °F - - ()
Min Temperature 27 °F - - ()
Degree Days  
Heating Degree Days 36    
Moisture  
Dew Point 28 °F    
Average Humidity 92    
Maximum Humidity 100    
Minimum Humidity 81    
Precipitation  
Precipitation 0.01 in - - ()
Sea Level Pressure  
Sea Level Pressure 29.67 in    
Wind  
Wind Speed 14 mph ()    
Max Wind Speed 21 mph    
Max Gust Speed 26 mph    
T = Trace of Precipitation, MM = Missing Value Source: Averaged Metar Reports

Daily Weather History Graph

Daily Weather History Graph

Search for Another Location

Airport or City:

Trip Planner

Search our weather history database for the weather conditions in past years. The results will help you decide how hot, cold, wet, or windy it might be!

Date:

Astronomy

Dec. 31, 1969 Rise Set
Actual Time Sun does not rise Sun does not rise
Civil Twilight Sun does not rise Sun does not rise
Nautical Twilight Sun does not rise Sun does not rise
Astronomical Twilight Sun does not rise Sun does not rise
Moon 9:20 PM MDT (6/30) 5:02 PM MDT (6/30)
Length of Visible Light 24h 00m
Length of Day
24h 00m
Last Quarter, 45% of the Moon is Illuminated
Jun 30
Last Quarter
Jul 8
New
Jul 15
First Quarter
Jul 22
Full
Jul 29
Last Quarter

Hourly Weather History & Observations

Time (MDT) Temp. Windchill Dew Point Humidity Pressure Visibility Wind Dir Wind Speed Gust Speed Precip Events Conditions
12:00 AM 32 °F - 32 °F 99% 29.55 in - WNW 15.0 mph - -  
12:00 AM 31.8 °F 21.4 °F 31.8 °F 100% 29.55 in - WNW 15.0 mph - 0.01 in   Unknown
1:00 AM 31.6 °F 21.2 °F 31.6 °F 100% 29.57 in - NW 15.0 mph - N/A   Unknown
2:00 AM 31.1 °F 20.1 °F 30.9 °F 99% 29.59 in - NW 16.1 mph - N/A   Unknown
3:00 AM 29.5 °F 18.8 °F 28.4 °F 96% 29.62 in - NNW 13.8 mph - N/A   Unknown
4:00 AM 29.3 °F 19.1 °F 28.2 °F 96% 29.63 in - NW 12.7 mph - N/A   Unknown
5:00 AM 28.9 °F 18.6 °F 27.7 °F 95% 29.65 in - NW 12.7 mph - N/A   Unknown
6:00 AM 29 °F - 27 °F 88% 29.65 in - NW 13.8 mph - -  
6:00 AM 28.6 °F 17.2 °F 27.0 °F 94% 29.65 in - NW 15.0 mph - N/A   Unknown
7:00 AM 28.6 °F 16.0 °F 26.4 °F 92% 29.65 in - NW 18.4 mph - N/A   Unknown
8:00 AM 29.3 °F 18.2 °F 27.7 °F 94% 29.67 in - NW 15.0 mph - N/A   Unknown
9:00 AM 28.0 °F 15.7 °F 25.9 °F 92% 29.69 in - NW 17.3 mph - N/A   Unknown
10:00 AM 28.4 °F 16.2 °F 26.2 °F 92% 29.69 in - NW 17.3 mph - N/A   Unknown
11:00 AM 28.0 °F 16.1 °F 26.1 °F 92% 29.70 in - WNW 16.1 mph - N/A   Unknown
12:00 PM 29 °F - 26 °F 81% 29.72 in - WNW 13.8 mph - -  
12:00 PM 28.8 °F 18.4 °F 25.5 °F 88% 29.72 in - WNW 12.7 mph - N/A   Unknown
1:00 PM 28.4 °F 17.0 °F 26.2 °F 92% 29.72 in - WNW 15.0 mph - N/A   Unknown
2:00 PM 29.1 °F 19.4 °F 25.9 °F 88% 29.73 in - WNW 11.5 mph - N/A   Unknown
3:00 PM 28.9 °F 17.7 °F 25.7 °F 88% 29.73 in - WNW 15.0 mph - N/A   Unknown
4:00 PM 29.5 °F 17.6 °F 26.6 °F 89% 29.73 in - West 17.3 mph - N/A   Unknown
5:00 PM 29.8 °F 19.8 °F 27.0 °F 89% 29.73 in - West 12.7 mph - N/A   Unknown
6:00 PM 31 °F - 28 °F 84% 29.72 in - West 15.0 mph - -  
6:00 PM 30.7 °F 19.6 °F 28.0 °F 90% 29.72 in - West 16.1 mph - N/A   Unknown
7:00 PM 30.4 °F 18.4 °F 27.9 °F 90% 29.70 in - West 18.4 mph - N/A   Unknown
8:00 PM 29.3 °F 16.2 °F 27.0 °F 91% 29.70 in - WNW 20.7 mph 26.5 mph N/A   Unknown
9:00 PM 28.8 °F 16.2 °F 26.8 °F 92% 29.68 in - West 18.4 mph - N/A   Unknown
10:00 PM 28.6 °F 15.6 °F 27.9 °F 97% 29.66 in - West 19.6 mph - 0.01 in   Unknown
11:00 PM 28.8 °F 15.9 °F 27.9 °F 96% 29.65 in - West 19.6 mph - N/A   Unknown